Location: Kuala Lumpur International
(3.1298°N, 101.5524°E)
Time: 10:25:02
(UTC+00:00)

Nadezhda 3 Rocket - Pass Details

Date: 05 August 2024
Orbit: 957 x 998 km, 82.9° (Epoch: 18 September)

Event Time Altitude Azimuth Distance (km) Brightness Sun altitude
Rises 12:31:37 0° 352° (N) 3,652 7.4 -16.2°
Reaches altitude 10° 12:34:07 10° 349° (N) 2,713 6.7 -16.8°
Maximum altitude 12:40:17 69° 267° (W) 1,048 4.3 -18.3°
Drops below altitude 10° 12:46:33 10° 185° (S) 2,748 6.2 -19.7°
Sets 12:49:06 0° 182° (S) 3,703 6.9 -20.3°
